| time (UTC) | temp F | wind direction | speed MPH | gust MPH | rain 1hr in | rain 24hr in | rain mn in | humidity % | barometer mb |
| 20260505171133 | 82 | 82 | 4.0 | 14.0 | 0.00 | 0.04 | 0.03 | 80 | 1016.0 |
| 20260505170647 | 82 | 75 | 5.0 | 13.0 | 0.00 | 0.04 | 0.03 | 79 | 1016.0 |
| 20260505170224 | 82 | 336 | 6.0 | 13.0 | 0.00 | 0.04 | 0.03 | 80 | 1016.1 |
| 20260505165629 | 82 | 51 | 6.0 | 13.0 | 0.00 | 0.04 | 0.03 | 81 | 1016.0 |
| 20260505165223 | 82 | 101 | 6.0 | 15.0 | 0.00 | 0.04 | 0.03 | 80 | 1016.1 |
| 20260505164641 | 82 | 119 | 7.0 | 15.0 | 0.00 | 0.04 | 0.03 | 79 | 1016.1 |
| 20260505164235 | 82 | 90 | 5.0 | 11.0 | 0.00 | 0.04 | 0.03 | 78 | 1016.1 |
| 20260505164153 | 82 | 90 | 5.0 | 11.0 | 0.00 | 0.04 | 0.03 | 78 | 1016.1 |
| 20260505163630 | 82 | 18 | 7.0 | 12.0 | 0.00 | 0.04 | 0.03 | 77 | 1016.1 |
| 20260505163132 | 82 | 129 | 5.0 | 12.0 | 0.00 | 0.04 | 0.03 | 78 | 1016.0 |
| 20260505162725 | 82 | 86 | 6.0 | 12.0 | 0.00 | 0.04 | 0.03 | 77 | 1016.1 |
| 20260505162140 | 82 | 103 | 5.0 | 11.0 | 0.00 | 0.04 | 0.03 | 78 | 1016.1 |
| 20260505161719 | 82 | 355 | 4.0 | 9.0 | 0.00 | 0.04 | 0.03 | 78 | 1016.1 |
| 20260505161216 | 82 | 109 | 5.0 | 10.0 | 0.00 | 0.04 | 0.03 | 77 | 1016.1 |
| 20260505160751 | 82 | 138 | 4.0 | 11.0 | 0.00 | 0.04 | 0.03 | 78 | 1016.0 |
| 20260505160226 | 82 | 69 | 6.0 | 11.0 | 0.00 | 0.05 | 0.03 | 77 | 1016.1 |
| 20260505153156 | 82 | 96 | 7.0 | 13.0 | 0.00 | 0.05 | 0.03 | 77 | 1016.0 |
| 20260505152633 | 82 | 9 | 4.0 | 13.0 | 0.00 | 0.05 | 0.03 | 77 | 1016.1 |
| 20260505152130 | 82 | 123 | 3.0 | 12.0 | 0.00 | 0.05 | 0.03 | 77 | 1016.0 |
| 20260505151727 | 82 | 13 | 3.0 | 10.0 | 0.00 | 0.05 | 0.03 | 78 | 1015.8 |
| 20260505151241 | 81 | 103 | 4.0 | 10.0 | 0.00 | 0.05 | 0.03 | 79 | 1015.9 |
| 20260505151138 | 81 | 103 | 4.0 | 10.0 | 0.00 | 0.05 | 0.03 | 79 | 1015.9 |
| 20260505150654 | 81 | 55 | 3.0 | 12.0 | 0.00 | 0.05 | 0.03 | 79 | 1016.0 |
| 20260505150131 | 81 | 84 | 4.0 | 12.0 | 0.00 | 0.11 | 0.03 | 80 | 1015.9 |
| 20260505140201 | 80 | 92 | 4.0 | 15.0 | 0.00 | 0.15 | 0.03 | 82 | 1015.5 |
| 20260505130224 | 79 | 58 | 4.0 | 12.0 | 0.00 | 0.15 | 0.03 | 84 | 1015.4 |
| 20260505124644 | 79 | 57 | 6.0 | 12.0 | 0.00 | 0.15 | 0.03 | 83 | 1015.3 |
| 20260505124202 | 79 | 82 | 5.0 | 12.0 | 0.00 | 0.15 | 0.03 | 84 | 1015.2 |
| 20260505123638 | 78 | 101 | 4.0 | 12.0 | 0.00 | 0.15 | 0.03 | 83 | 1015.0 |
| 20260505123135 | 78 | 79 | 7.0 | 12.0 | 0.00 | 0.15 | 0.03 | 83 | 1014.8 |
| 20260505122733 | 78 | 73 | 5.0 | 11.0 | 0.00 | 0.15 | 0.03 | 84 | 1014.8 |
| 20260505122227 | 78 | 88 | 4.0 | 10.0 | 0.00 | 0.15 | 0.03 | 84 | 1014.9 |
| 20260505121643 | 78 | 99 | 5.0 | 10.0 | 0.00 | 0.15 | 0.03 | 84 | 1014.8 |
| 20260505121142 | 78 | 109 | 3.0 | 10.0 | 0.00 | 0.15 | 0.03 | 85 | 1014.5 |
| 20260505120659 | 78 | 90 | 4.0 | 8.0 | 0.00 | 0.15 | 0.03 | 86 | 1014.6 |
| 20260505120136 | 77 | 91 | 4.0 | 7.0 | 0.00 | 0.15 | 0.03 | 86 | 1014.7 |
| 20260505115646 | 77 | 92 | 3.0 | 6.0 | 0.00 | 0.15 | 0.03 | 87 | 1014.5 |
| 20260505115143 | 77 | 92 | 2.0 | 9.0 | 0.00 | 0.15 | 0.03 | 87 | 1014.6 |
| 20260505114641 | 76 | 92 | 4.0 | 9.0 | 0.00 | 0.15 | 0.03 | 87 | 1014.7 |
| 20260505114144 | 76 | 88 | 3.0 | 8.0 | 0.00 | 0.15 | 0.03 | 87 | 1014.5 |
| 20260505113718 | 76 | 85 | 4.0 | 8.0 | 0.00 | 0.15 | 0.03 | 88 | 1014.6 |
| 20260505113138 | 76 | 80 | 3.0 | 8.0 | 0.00 | 0.15 | 0.03 | 88 | 1014.6 |
| 20260505112712 | 76 | 81 | 2.0 | 8.0 | 0.00 | 0.15 | 0.03 | 89 | 1014.5 |
| 20260505112133 | 76 | 81 | 2.0 | 9.0 | 0.00 | 0.15 | 0.03 | 89 | 1014.3 |
| 20260505111631 | 75 | 81 | 3.0 | 9.0 | 0.00 | 0.15 | 0.03 | 89 | 1014.4 |
| 20260505111245 | 75 | 80 | 3.0 | 6.0 | 0.00 | 0.15 | 0.03 | 89 | 1014.4 |
| 20260505110638 | 75 | 81 | 3.0 | 6.0 | 0.00 | 0.15 | 0.03 | 90 | 1014.3 |
| 20260505110154 | 75 | 81 | 2.0 | 6.0 | 0.00 | 0.21 | 0.03 | 90 | 1014.2 |
| 20260505102152 | 75 | 82 | 3.0 | 10.0 | 0.00 | 0.21 | 0.03 | 90 | 1014.0 |
| 20260505101630 | 75 | 86 | 4.0 | 10.0 | 0.00 | 0.21 | 0.03 | 90 | 1013.8 |
| 20260505101208 | 75 | 87 | 3.0 | 8.0 | 0.00 | 0.21 | 0.03 | 91 | 1013.8 |
| 20260505100705 | 75 | 88 | 5.0 | 8.0 | 0.00 | 0.21 | 0.03 | 91 | 1014.0 |
| 20260505100139 | 74 | 88 | 3.0 | 6.0 | 0.00 | 0.23 | 0.03 | 91 | 1013.7 |
| 20260505095645 | 74 | 88 | 2.0 | 6.0 | 0.00 | 0.23 | 0.03 | 91 | 1013.6 |
| 20260505095142 | 74 | 88 | 3.0 | 8.0 | 0.00 | 0.23 | 0.03 | 90 | 1013.7 |
| 20260505094639 | 74 | 88 | 2.0 | 8.0 | 0.00 | 0.23 | 0.03 | 91 | 1013.5 |
| 20260505094153 | 74 | 88 | 2.0 | 8.0 | 0.00 | 0.23 | 0.03 | 91 | 1013.6 |
| 20260505093629 | 74 | 88 | 3.0 | 8.0 | 0.00 | 0.23 | 0.03 | 91 | 1013.3 |
| 20260505093146 | 74 | 88 | 1.0 | 8.0 | 0.00 | 0.23 | 0.03 | 91 | 1013.3 |
| 20260505092723 | 74 | 88 | 3.0 | 9.0 | 0.00 | 0.23 | 0.03 | 92 | 1013.3 |
| 20260505092238 | 74 | 89 | 2.0 | 8.0 | 0.00 | 0.23 | 0.03 | 92 | 1013.4 |
| 20260505091633 | 74 | 90 | 4.0 | 9.0 | 0.00 | 0.23 | 0.03 | 92 | 1013.4 |
| 20260505091131 | 74 | 90 | 3.0 | 9.0 | 0.00 | 0.23 | 0.03 | 92 | 1013.4 |
| 20260505090748 | 74 | 90 | 3.0 | 8.0 | 0.00 | 0.23 | 0.03 | 92 | 1013.4 |
| 20260505090706 | 74 | 90 | 3.0 | 8.0 | 0.00 | 0.23 | 0.03 | 92 | 1013.4 |
| 20260505090142 | 74 | 90 | 3.0 | 8.0 | 0.00 | 0.24 | 0.03 | 92 | 1013.4 |
| 20260505085729 | 74 | 91 | 3.0 | 9.0 | 0.00 | 0.24 | 0.03 | 92 | 1013.3 |
| 20260505085244 | 74 | 93 | 2.0 | 9.0 | 0.00 | 0.24 | 0.03 | 92 | 1013.1 |
| 20260505084637 | 74 | 93 | 3.0 | 8.0 | 0.00 | 0.24 | 0.03 | 92 | 1013.3 |
| 20260505084135 | 74 | 93 | 3.0 | 8.0 | 0.00 | 0.24 | 0.03 | 92 | 1013.2 |
| 20260505083653 | 74 | 94 | 4.0 | 9.0 | 0.01 | 0.24 | 0.03 | 92 | 1013.2 |
| 20260505083130 | 74 | 88 | 4.0 | 8.0 | 0.02 | 0.24 | 0.03 | 92 | 1013.3 |
| 20260505082727 | 74 | 82 | 5.0 | 10.0 | 0.03 | 0.24 | 0.03 | 93 | 1013.2 |
| 20260505082143 | 74 | 92 | 5.0 | 10.0 | 0.03 | 0.24 | 0.03 | 92 | 1013.2 |
| 20260505081739 | 74 | 87 | 4.0 | 9.0 | 0.03 | 0.24 | 0.03 | 93 | 1013.4 |
| 20260505081636 | 74 | 87 | 4.0 | 9.0 | 0.03 | 0.24 | 0.03 | 93 | 1013.4 |
| 20260505081134 | 74 | 77 | 4.0 | 10.0 | 0.03 | 0.24 | 0.03 | 93 | 1013.4 |
| 20260505080650 | 74 | 21 | 3.0 | 10.0 | 0.03 | 0.24 | 0.03 | 92 | 1013.2 |
| 20260505080146 | 74 | 74 | 3.0 | 9.0 | 0.03 | 0.26 | 0.03 | 92 | 1013.2 |
| 20260505075636 | 74 | 55 | 4.0 | 12.0 | 0.03 | 0.26 | 0.03 | 92 | 1013.4 |
| 20260505075213 | 75 | 84 | 4.0 | 12.0 | 0.03 | 0.26 | 0.03 | 92 | 1013.4 |
| 20260505074628 | 75 | 78 | 1.0 | 11.0 | 0.03 | 0.26 | 0.03 | 92 | 1013.5 |
| 20260505074206 | 75 | 96 | 3.0 | 11.0 | 0.03 | 0.26 | 0.03 | 91 | 1013.6 |
| 20260505073742 | 75 | 98 | 3.0 | 6.0 | 0.02 | 0.25 | 0.02 | 91 | 1013.7 |
| 20260505073659 | 75 | 98 | 3.0 | 6.0 | 0.02 | 0.25 | 0.02 | 91 | 1013.7 |
| 20260505073135 | 75 | 96 | 3.0 | 6.0 | 0.01 | 0.24 | 0.01 | 91 | 1013.8 |
| 20260505072633 | 75 | 91 | 3.0 | 8.0 | 0.00 | 0.23 | 0.00 | 90 | 1013.7 |
| 20260505072131 | 75 | 30 | 3.0 | 11.0 | 0.00 | 0.23 | 0.00 | 90 | 1013.7 |
| 20260505071728 | 75 | 68 | 4.0 | 12.0 | 0.00 | 0.23 | 0.00 | 90 | 1013.7 |
| 20260505071204 | 75 | 38 | 5.0 | 12.0 | 0.00 | 0.23 | 0.00 | 90 | 1013.7 |
| 20260505070736 | 75 | 15 | 4.0 | 9.0 | 0.00 | 0.23 | 0.00 | 90 | 1013.8 |
| 20260505070633 | 75 | 15 | 4.0 | 9.0 | 0.00 | 0.23 | 0.00 | 90 | 1013.8 |
| 20260505070135 | 75 | 77 | 3.0 | 11.0 | 0.00 | 0.23 | 0.00 | 90 | 1013.8 |
| 20260505065700 | 75 | 53 | 4.0 | 11.0 | 0.00 | 0.23 | 0.00 | 90 | 1013.8 |
| 20260505065157 | 75 | 74 | 4.0 | 11.0 | 0.00 | 0.23 | 0.00 | 90 | 1013.7 |
| 20260505064653 | 75 | 74 | 5.0 | 11.0 | 0.00 | 0.23 | 0.00 | 90 | 1013.7 |
| 20260505064208 | 75 | 67 | 5.0 | 11.0 | 0.00 | 0.23 | 0.00 | 90 | 1013.8 |
| 20260505063704 | 74 | 113 | 3.0 | 11.0 | 0.00 | 0.23 | 0.00 | 90 | 1013.9 |
| 20260505063200 | 74 | 65 | 4.0 | 11.0 | 0.00 | 0.23 | 0.00 | 90 | 1014.1 |
| 20260505062635 | 74 | 97 | 4.0 | 8.0 | 0.00 | 0.23 | 0.00 | 90 | 1014.2 |
| 20260505062151 | 74 | 62 | 1.0 | 6.0 | 0.00 | 0.23 | 0.00 | 90 | 1014.3 |
| 20260505061708 | 74 | 19 | 2.0 | 10.0 | 0.00 | 0.23 | 0.00 | 90 | 1014.2 |
| 20260505061144 | 74 | 46 | 4.0 | 10.0 | 0.00 | 0.23 | 0.00 | 90 | 1014.3 |
| 20260505060702 | 74 | 38 | 3.0 | 9.0 | 0.00 | 0.23 | 0.00 | 90 | 1014.3 |
| 20260505060139 | 74 | 24 | 4.0 | 9.0 | 0.00 | 0.24 | 0.00 | 90 | 1014.3 |
| 20260505055705 | 74 | 66 | 2.0 | 9.0 | 0.00 | 0.24 | 0.00 | 90 | 1014.2 |
| 20260505055202 | 74 | 84 | 3.0 | 9.0 | 0.00 | 0.24 | 0.00 | 90 | 1014.2 |
| 20260505054700 | 74 | 60 | 4.0 | 10.0 | 0.00 | 0.24 | 0.00 | 90 | 1014.3 |
| 20260505054157 | 74 | 83 | 5.0 | 10.0 | 0.00 | 0.24 | 0.00 | 90 | 1014.3 |
| 20260505053654 | 74 | 57 | 3.0 | 7.0 | 0.00 | 0.24 | 0.00 | 90 | 1014.5 |
| 20260505053251 | 74 | 54 | 3.0 | 7.0 | 0.00 | 0.24 | 0.00 | 90 | 1014.6 |
| 20260505053208 | 74 | 54 | 3.0 | 7.0 | 0.00 | 0.24 | 0.00 | 90 | 1014.6 |
| 20260505052725 | 74 | 63 | 3.0 | 10.0 | 0.00 | 0.24 | 0.00 | 90 | 1014.7 |
| 20260505052200 | 74 | 51 | 5.0 | 11.0 | 0.00 | 0.24 | 0.00 | 90 | 1014.8 |
| 20260505051636 | 74 | 99 | 5.0 | 11.0 | 0.00 | 0.24 | 0.00 | 90 | 1014.8 |
| 20260505051132 | 74 | 99 | 5.0 | 9.0 | 0.00 | 0.24 | 0.00 | 90 | 1014.9 |
| 20260505050629 | 74 | 94 | 5.0 | 12.0 | 0.00 | 0.24 | 0.00 | 90 | 1014.9 |
| 20260505050246 | 74 | 82 | 5.0 | 14.0 | 0.00 | 0.24 | 0.00 | 90 | 1015.0 |
| 20260505041632 | 75 | 77 | 7.0 | 14.0 | 0.01 | 0.24 | 0.00 | 91 | 1015.2 |
| 20260505041130 | 75 | 113 | 9.0 | 14.0 | 0.01 | 0.24 | 0.00 | 91 | 1015.2 |
| 20260505040708 | 74 | 108 | 8.0 | 15.0 | 0.01 | 0.24 | 0.00 | 91 | 1015.3 |
| 20260505040226 | 74 | 121 | 5.0 | 15.0 | 0.01 | 0.24 | 0.24 | 91 | 1015.3 |
| 20260505040143 | 74 | 121 | 5.0 | 15.0 | 0.01 | 0.24 | 0.24 | 91 | 1015.3 |
| 20260505035630 | 75 | 98 | 6.0 | 14.0 | 0.01 | 0.24 | 0.24 | 91 | 1015.3 |
| 20260505035206 | 75 | 91 | 9.0 | 14.0 | 0.01 | 0.24 | 0.24 | 91 | 1015.3 |
| 20260505034641 | 75 | 117 | 7.0 | 13.0 | 0.01 | 0.24 | 0.24 | 90 | 1015.3 |
| 20260505034138 | 75 | 102 | 5.0 | 13.0 | 0.01 | 0.24 | 0.24 | 90 | 1015.4 |
| 20260505033634 | 76 | 92 | 7.0 | 13.0 | 0.01 | 0.24 | 0.24 | 89 | 1015.4 |
| 20260505033150 | 76 | 87 | 4.0 | 11.0 | 0.00 | 0.23 | 0.23 | 88 | 1015.4 |
| 20260505032746 | 76 | 90 | 5.0 | 12.0 | 0.00 | 0.23 | 0.23 | 86 | 1015.2 |
| 20260505032200 | 76 | 82 | 7.0 | 12.0 | 0.00 | 0.23 | 0.23 | 85 | 1015.2 |
| 20260505031735 | 76 | 109 | 6.0 | 12.0 | 0.00 | 0.23 | 0.23 | 85 | 1015.1 |
| 20260505031653 | 76 | 109 | 6.0 | 12.0 | 0.00 | 0.23 | 0.23 | 85 | 1015.1 |
| 20260505031147 | 76 | 125 | 5.0 | 11.0 | 0.00 | 0.23 | 0.23 | 85 | 1015.0 |
| 20260505030643 | 76 | 100 | 8.0 | 11.0 | 0.00 | 0.23 | 0.23 | 85 | 1015.0 |
| 20260505030140 | 76 | 101 | 6.0 | 10.0 | 0.00 | 0.23 | 0.23 | 85 | 1015.2 |
| 20260505025649 | 77 | 109 | 5.0 | 10.0 | 0.00 | 0.23 | 0.23 | 84 | 1015.1 |
| 20260505025227 | 77 | 113 | 6.0 | 10.0 | 0.00 | 0.23 | 0.23 | 83 | 1015.1 |
| 20260505024702 | 77 | 86 | 4.0 | 11.0 | 0.00 | 0.23 | 0.23 | 83 | 1015.1 |
| 20260505024158 | 77 | 90 | 5.0 | 11.0 | 0.00 | 0.23 | 0.23 | 81 | 1015.1 |
| 20260505023635 | 77 | 102 | 5.0 | 11.0 | 0.00 | 0.23 | 0.23 | 82 | 1015.1 |
| 20260505023133 | 77 | 87 | 6.0 | 10.0 | 0.00 | 0.23 | 0.23 | 82 | 1015.2 |
| 20260505022631 | 77 | 99 | 6.0 | 10.0 | 0.00 | 0.23 | 0.23 | 81 | 1015.3 |
| 20260505022229 | 77 | 103 | 5.0 | 14.0 | 0.00 | 0.23 | 0.23 | 81 | 1015.0 |
| 20260505021643 | 77 | 92 | 6.0 | 14.0 | 0.00 | 0.23 | 0.23 | 81 | 1015.1 |
| 20260505021200 | 77 | 107 | 6.0 | 12.0 | 0.00 | 0.23 | 0.23 | 81 | 1015.1 |
| 20260505020657 | 77 | 79 | 4.0 | 13.0 | 0.00 | 0.23 | 0.23 | 81 | 1015.1 |
| 20260505020134 | 77 | 82 | 6.0 | 13.0 | 0.00 | 0.23 | 0.23 | 81 | 1015.3 |
| 20260505015701 | 77 | 140 | 5.0 | 12.0 | 0.00 | 0.23 | 0.23 | 81 | 1015.3 |
| 20260505015137 | 77 | 95 | 5.0 | 15.0 | 0.00 | 0.23 | 0.23 | 81 | 1015.2 |
| 20260505014635 | 77 | 91 | 5.0 | 15.0 | 0.00 | 0.23 | 0.23 | 80 | 1015.2 |
| 20260505014133 | 77 | 119 | 6.0 | 11.0 | 0.00 | 0.23 | 0.23 | 80 | 1015.1 |
| 20260505013649 | 77 | 103 | 6.0 | 13.0 | 0.00 | 0.23 | 0.23 | 80 | 1015.1 |
| 20260505013205 | 77 | 96 | 6.0 | 13.0 | 0.00 | 0.23 | 0.23 | 80 | 1015.1 |
| 20260505012641 | 77 | 119 | 7.0 | 15.0 | 0.00 | 0.23 | 0.23 | 81 | 1015.0 |
| 20260505012239 | 77 | 78 | 6.0 | 13.0 | 0.00 | 0.23 | 0.23 | 80 | 1014.9 |
| 20260505011653 | 77 | 86 | 7.0 | 13.0 | 0.00 | 0.23 | 0.23 | 81 | 1014.8 |
| 20260505011211 | 77 | 90 | 7.0 | 13.0 | 0.00 | 0.23 | 0.23 | 81 | 1014.8 |
| 20260505010727 | 77 | 84 | 6.0 | 13.0 | 0.00 | 0.23 | 0.23 | 81 | 1014.7 |
| 20260505010144 | 77 | 78 | 4.0 | 12.0 | 0.00 | 0.23 | 0.23 | 81 | 1014.8 |
| 20260505005632 | 77 | 78 | 5.0 | 12.0 | 0.00 | 0.23 | 0.23 | 81 | 1014.8 |
| 20260505005129 | 77 | 81 | 6.0 | 15.0 | 0.00 | 0.23 | 0.23 | 80 | 1014.9 |
| 20260505004708 | 77 | 103 | 6.0 | 15.0 | 0.00 | 0.23 | 0.23 | 80 | 1014.8 |
| 20260505004145 | 77 | 59 | 8.0 | 13.0 | 0.00 | 0.23 | 0.23 | 80 | 1014.7 |
| 20260505003640 | 77 | 81 | 5.0 | 13.0 | 0.00 | 0.23 | 0.23 | 80 | 1014.6 |
| 20260505003215 | 77 | 106 | 6.0 | 16.0 | 0.00 | 0.23 | 0.23 | 79 | 1014.6 |
| 20260505002630 | 77 | 92 | 6.0 | 16.0 | 0.00 | 0.23 | 0.23 | 80 | 1014.6 |
| 20260505002128 | 77 | 76 | 7.0 | 17.0 | 0.00 | 0.23 | 0.23 | 80 | 1014.6 |
| 20260505001705 | 77 | 66 | 5.0 | 17.0 | 0.00 | 0.23 | 0.23 | 80 | 1014.5 |
| 20260505001222 | 77 | 76 | 7.0 | 12.0 | 0.00 | 0.23 | 0.23 | 79 | 1014.5 |
| 20260505001140 | 77 | 76 | 7.0 | 12.0 | 0.00 | 0.23 | 0.23 | 79 | 1014.5 |
| 20260505000658 | 77 | 63 | 7.0 | 12.0 | 0.00 | 0.23 | 0.23 | 79 | 1014.6 |
| 20260505000136 | 77 | 58 | 5.0 | 13.0 | 0.00 | 0.23 | 0.23 | 79 | 1014.6 |
| 20260504235704 | 77 | 66 | 8.0 | 13.0 | 0.00 | 0.23 | 0.23 | 79 | 1014.6 |
| 20260504235223 | 77 | 73 | 6.0 | 15.0 | 0.00 | 0.23 | 0.23 | 80 | 1014.5 |
| 20260504234709 | 77 | 103 | 6.0 | 15.0 | 0.00 | 0.23 | 0.23 | 79 | 1014.6 |
| 20260504234238 | 77 | 82 | 6.0 | 16.0 | 0.00 | 0.23 | 0.23 | 80 | 1014.5 |
| 20260504233651 | 77 | 82 | 6.0 | 16.0 | 0.00 | 0.23 | 0.23 | 79 | 1014.5 |
| 20260504233207 | 77 | 75 | 5.0 | 15.0 | 0.00 | 0.23 | 0.23 | 79 | 1014.5 |
| 20260504232643 | 77 | 69 | 7.0 | 15.0 | 0.00 | 0.23 | 0.23 | 79 | 1014.5 |
| 20260504232139 | 77 | 95 | 5.0 | 12.0 | 0.00 | 0.23 | 0.23 | 79 | 1014.5 |
| 20260504231637 | 77 | 106 | 6.0 | 13.0 | 0.00 | 0.23 | 0.23 | 79 | 1014.5 |
| 20260504231139 | 77 | 77 | 6.0 | 13.0 | 0.00 | 0.23 | 0.23 | 79 | 1014.4 |
| 20260504230733 | 77 | 76 | 5.0 | 14.0 | 0.00 | 0.23 | 0.23 | 78 | 1014.3 |
| 20260504230650 | 77 | 76 | 5.0 | 14.0 | 0.00 | 0.23 | 0.23 | 78 | 1014.3 |
| 20260504230147 | 77 | 82 | 9.0 | 14.0 | 0.00 | 0.23 | 0.23 | 78 | 1014.3 |
| 20260504225636 | 77 | 52 | 6.0 | 13.0 | 0.00 | 0.23 | 0.23 | 78 | 1014.3 |
| 20260504225214 | 77 | 80 | 7.0 | 17.0 | 0.00 | 0.23 | 0.23 | 78 | 1014.3 |
| 20260504224749 | 77 | 94 | 6.0 | 17.0 | 0.00 | 0.23 | 0.23 | 77 | 1014.2 |
| 20260504224646 | 77 | 94 | 6.0 | 17.0 | 0.00 | 0.23 | 0.23 | 77 | 1014.2 |
| 20260504224142 | 77 | 78 | 7.0 | 13.0 | 0.00 | 0.23 | 0.23 | 77 | 1014.2 |
| 20260504223639 | 78 | 67 | 7.0 | 15.0 | 0.00 | 0.23 | 0.23 | 77 | 1014.2 |
| 20260504223137 | 78 | 84 | 7.0 | 15.0 | 0.00 | 0.23 | 0.23 | 77 | 1014.2 |
| 20260504222634 | 78 | 30 | 6.0 | 13.0 | 0.00 | 0.23 | 0.23 | 77 | 1014.3 |
| 20260504222135 | 77 | 55 | 8.0 | 13.0 | 0.00 | 0.23 | 0.23 | 77 | 1014.3 |
| 20260504221729 | 77 | 71 | 8.0 | 15.0 | 0.00 | 0.23 | 0.23 | 77 | 1014.4 |
| 20260504221128 | 78 | 82 | 6.0 | 15.0 | 0.00 | 0.23 | 0.23 | 77 | 1014.3 |
| 20260504220640 | 78 | 48 | 6.0 | 16.0 | 0.00 | 0.23 | 0.23 | 77 | 1014.4 |
| 20260504220218 | 78 | 83 | 7.0 | 16.0 | 0.00 | 0.27 | 0.23 | 77 | 1014.4 |
| 20260504220135 | 78 | 83 | 7.0 | 16.0 | 0.00 | 0.27 | 0.23 | 77 | 1014.4 |
| 20260504215702 | 78 | 92 | 8.0 | 15.0 | 0.00 | 0.27 | 0.23 | 77 | 1014.3 |
| 20260504215240 | 78 | 53 | 5.0 | 15.0 | 0.00 | 0.27 | 0.23 | 78 | 1014.3 |
| 20260504214715 | 78 | 88 | 6.0 | 14.0 | 0.00 | 0.27 | 0.23 | 78 | 1014.1 |
| 20260504214213 | 77 | 55 | 9.0 | 15.0 | 0.00 | 0.27 | 0.23 | 77 | 1014.1 |
| 20260504213749 | 77 | 57 | 7.0 | 15.0 | 0.00 | 0.27 | 0.23 | 77 | 1014.2 |
| 20260504213706 | 77 | 57 | 7.0 | 15.0 | 0.00 | 0.27 | 0.23 | 77 | 1014.2 |
| 20260504213204 | 78 | 111 | 7.0 | 14.0 | 0.00 | 0.27 | 0.23 | 77 | 1014.2 |
| 20260504212720 | 78 | 77 | 7.0 | 14.0 | 0.00 | 0.27 | 0.23 | 78 | 1014.2 |
| 20260504212216 | 78 | 101 | 9.0 | 14.0 | 0.00 | 0.27 | 0.23 | 77 | 1014.3 |
| 20260504211631 | 78 | 91 | 8.0 | 16.0 | 0.00 | 0.27 | 0.23 | 77 | 1014.3 |
| 20260504211208 | 78 | 96 | 6.0 | 16.0 | 0.00 | 0.27 | 0.23 | 78 | 1014.3 |
| 20260504210645 | 78 | 84 | 7.0 | 17.0 | 0.00 | 0.27 | 0.23 | 77 | 1014.4 |
| 20260504210201 | 78 | 83 | 6.0 | 17.0 | 0.00 | 0.30 | 0.23 | 77 | 1014.5 |
| 20260504205725 | 78 | 51 | 4.0 | 16.0 | 0.00 | 0.30 | 0.23 | 77 | 1014.5 |
| 20260504205220 | 78 | 42 | 7.0 | 16.0 | 0.00 | 0.30 | 0.23 | 77 | 1014.6 |
| 20260504204634 | 78 | 67 | 7.0 | 13.0 | 0.00 | 0.30 | 0.23 | 77 | 1014.5 |
| 20260504204152 | 78 | 65 | 8.0 | 17.0 | 0.00 | 0.30 | 0.23 | 77 | 1014.4 |
| 20260504203707 | 78 | 32 | 6.0 | 17.0 | 0.00 | 0.30 | 0.23 | 77 | 1014.4 |
| 20260504203202 | 78 | 96 | 8.0 | 15.0 | 0.00 | 0.30 | 0.23 | 76 | 1014.5 |
| 20260504202718 | 78 | 71 | 10.0 | 17.0 | 0.00 | 0.30 | 0.23 | 76 | 1014.5 |
| 20260504202134 | 78 | 78 | 9.0 | 17.0 | 0.00 | 0.30 | 0.23 | 76 | 1014.6 |
| 20260504201631 | 78 | 80 | 8.0 | 15.0 | 0.00 | 0.30 | 0.23 | 77 | 1014.6 |
| 20260504201149 | 78 | 96 | 7.0 | 17.0 | 0.00 | 0.30 | 0.23 | 78 | 1014.7 |
| 20260504200645 | 78 | 87 | 10.0 | 17.0 | 0.00 | 0.30 | 0.23 | 77 | 1014.7 |
| 20260504200142 | 78 | 99 | 7.0 | 16.0 | 0.00 | 0.31 | 0.23 | 77 | 1014.8 |
| 20260504195730 | 78 | 56 | 8.0 | 17.0 | 0.00 | 0.31 | 0.23 | 77 | 1014.8 |
| 20260504195647 | 78 | 56 | 8.0 | 17.0 | 0.00 | 0.31 | 0.23 | 77 | 1014.8 |
| 20260504195202 | 78 | 92 | 9.0 | 17.0 | 0.00 | 0.31 | 0.23 | 76 | 1015.0 |
| 20260504194658 | 78 | 70 | 10.0 | 17.0 | 0.00 | 0.31 | 0.23 | 76 | 1014.9 |
| 20260504194214 | 78 | 81 | 10.0 | 16.0 | 0.00 | 0.31 | 0.23 | 76 | 1015.0 |
| 20260504194131 | 78 | 81 | 10.0 | 16.0 | 0.00 | 0.31 | 0.23 | 76 | 1015.0 |
| 20260504193728 | 79 | 53 | 8.0 | 17.0 | 0.00 | 0.31 | 0.23 | 77 | 1015.1 |
| 20260504193646 | 79 | 53 | 8.0 | 17.0 | 0.00 | 0.31 | 0.23 | 77 | 1015.1 |
| 20260504193144 | 79 | 81 | 8.0 | 17.0 | 0.00 | 0.31 | 0.23 | 76 | 1015.1 |
| 20260504192742 | 79 | 78 | 10.0 | 17.0 | 0.00 | 0.31 | 0.23 | 76 | 1015.1 |
| 20260504192135 | 79 | 76 | 8.0 | 18.0 | 0.00 | 0.31 | 0.23 | 76 | 1015.2 |
| 20260504191714 | 79 | 94 | 8.0 | 18.0 | 0.00 | 0.31 | 0.23 | 75 | 1015.3 |
| 20260504191210 | 79 | 10 | 9.0 | 17.0 | 0.00 | 0.31 | 0.23 | 75 | 1015.3 |
| 20260504190646 | 79 | 98 | 10.0 | 17.0 | 0.00 | 0.31 | 0.23 | 74 | 1015.4 |
| 20260504190203 | 79 | 77 | 8.0 | 16.0 | 0.00 | 0.31 | 0.23 | 76 | 1015.3 |
| 20260504185713 | 79 | 90 | 9.0 | 16.0 | 0.00 | 0.31 | 0.23 | 75 | 1015.4 |
| 20260504185144 | 80 | 63 | 7.0 | 18.0 | 0.00 | 0.31 | 0.23 | 76 | 1015.3 |
| 20260504184645 | 79 | 115 | 11.0 | 18.0 | 0.00 | 0.31 | 0.23 | 76 | 1015.3 |
| 20260504184238 | 79 | 62 | 11.0 | 22.0 | 0.00 | 0.31 | 0.23 | 76 | 1015.3 |
| 20260504184156 | 79 | 62 | 11.0 | 22.0 | 0.00 | 0.31 | 0.23 | 76 | 1015.3 |
| 20260504183631 | 79 | 92 | 8.0 | 22.0 | 0.00 | 0.31 | 0.23 | 77 | 1015.3 |
| 20260504183132 | 79 | 59 | 10.0 | 18.0 | 0.00 | 0.31 | 0.23 | 76 | 1015.4 |
| 20260504182628 | 79 | 107 | 9.0 | 19.0 | 0.00 | 0.31 | 0.23 | 76 | 1015.4 |
| 20260504182145 | 79 | 94 | 11.0 | 19.0 | 0.00 | 0.31 | 0.23 | 76 | 1015.5 |
| 20260504181642 | 79 | 38 | 6.0 | 19.0 | 0.00 | 0.31 | 0.23 | 79 | 1015.4 |
| 20260504181238 | 78 | 77 | 8.0 | 19.0 | 0.00 | 0.31 | 0.23 | 78 | 1015.5 |
| 20260504181156 | 78 | 77 | 8.0 | 19.0 | 0.00 | 0.31 | 0.23 | 78 | 1015.5 |
| 20260504180652 | 79 | 66 | 10.0 | 17.0 | 0.00 | 0.31 | 0.23 | 77 | 1015.6 |
| 20260504180131 | 79 | 142 | 9.0 | 17.0 | 0.00 | 0.35 | 0.23 | 76 | 1015.6 |
| 20260504175640 | 79 | 49 | 6.0 | 17.0 | 0.00 | 0.35 | 0.23 | 77 | 1015.6 |
| 20260504175218 | 79 | 88 | 6.0 | 17.0 | 0.00 | 0.35 | 0.23 | 79 | 1015.6 |
| 20260504174634 | 79 | 86 | 9.0 | 17.0 | 0.00 | 0.35 | 0.23 | 78 | 1015.6 |
| 20260504174132 | 79 | 90 | 11.0 | 16.0 | 0.00 | 0.35 | 0.23 | 78 | 1015.7 |
| 20260504173746 | 79 | 61 | 9.0 | 21.0 | 0.00 | 0.35 | 0.23 | 79 | 1015.8 |
| 20260504173643 | 79 | 61 | 9.0 | 21.0 | 0.00 | 0.35 | 0.23 | 79 | 1015.8 |
| 20260504173222 | 78 | 84 | 7.0 | 21.0 | 0.00 | 0.35 | 0.23 | 80 | 1015.8 |
| 20260504172658 | 78 | 320 | 11.0 | 20.0 | 0.00 | 0.35 | 0.23 | 80 | 1015.8 |
| 20260504172135 | 78 | 105 | 9.0 | 17.0 | 0.00 | 0.35 | 0.23 | 80 | 1015.8 |
| 20260504171652 | 77 | 92 | 9.0 | 17.0 | 0.00 | 0.35 | 0.23 | 81 | 1015.8 |
| 20260504171247 | 77 | 79 | 6.0 | 18.0 | 0.00 | 0.35 | 0.23 | 81 | 1015.9 |